{"data":{"norad_id":49139,"epoch":"2026-09-20T04:00:03.000096Z","epoch_age_seconds":70167,"freshness":"FRESH","line1":"1 49139U 21082K   26263.16670139  .00150152  00000+0  19556-2 0  9992","line2":"2 49139  69.9995 110.5996 0003500 273.9941  78.6105 15.58083156  5935","mean_motion":15.58083156,"eccentricity":0.00035,"inclination_deg":69.9995,"raan_deg":110.5996,"arg_perigee_deg":273.9941,"mean_anomaly_deg":78.6105,"bstar":0.0019556,"rev_number":593,"period_min":92.421254568777,"perigee_km":390.83508794658,"apogee_km":395.57502738694,"semimajor_km":6771.3420576668,"source":"CELESTRAK","updated_at":"2026-09-20T09:00:39.248055Z"}}